This demonstration page uses our WeatherBlox Daily Observations layout. Learn more.

38.88101, -77.10428

Hourly Observations for March 22, 2018

Temp ( °F °C ) Dew Point ( °F °C ) Humidity (%) Winds ( mph kmh ) Pressure ( in mb ) Visibility ( mi km ) Precip ( " mm )
12:52 am 00:52 Cloudy with Light Snow 36 2.2 31 -0.6 82 82 NNW 14 22 29.85 1011 9 14.48406 0 0.0254
1:52 am 01:52 Cloudy 36 2.2 31 -0.6 82 82 NNW 12 19 29.86 1011 9 14.48406 0 0.0254
2:52 am 02:52 Cloudy 36 2.2 31 -0.6 82 82 NNW 8 13 29.86 1011 10 16.0934 0 0
3:52 am 03:52 Cloudy 36 2.2 29 -1.7 76 76 NNW 10 17 29.86 1011 10 16.0934 0 0
4:52 am 04:52 Partly Cloudy 36 2.2 27 -2.8 70 70 NW 17 28 29.87 1011 10 16.0934 0 0
5:23 am 05:23 Mostly Cloudy 36 2.2 25 -3.9 64 64 NW 16 26 29.88 1012 10 16.0934 0 0
5:52 am 05:52 Cloudy 36 2.2 25 -3.9 64 64 NW 14 22 29.89 1012 10 16.0934 0 0
6:38 am 06:38 Partly Cloudy 35 1.7 24 -4.4 64 64 NW 15 24 29.91 1013 10 16.0934 0 0
6:52 am 06:52 Partly Cloudy 35 1.7 24 -4.4 64 64 NW 14 22 29.92 1013 10 16.0934 0 0
7:52 am 07:52 Partly Cloudy 35 1.7 22 -5.6 59 59 NW 16 26 29.96 1014 10 16.0934 0 0
8:52 am 08:52 Partly Cloudy 36 2.2 22 -5.6 57 57 NW 17 28 29.98 1015 10 16.0934 0 0
9:52 am 09:52 Partly Cloudy 37 2.8 23 -5 57 57 NNW 15 24 30 1016 10 16.0934 0 0
10:52 am 10:52 Mostly Cloudy 39 3.9 23 -5 53 53 NW 13 20 30.01 1016 10 16.0934 0 0
11:52 am 11:52 Mostly Cloudy 40 4.4 22 -5.6 49 49 NW 16 26 30.02 1017 10 16.0934 0 0
12:52 pm 12:52 Mostly Cloudy 43 6.1 24 -4.4 47 47 NW 16 26 30.02 1017 10 16.0934 0 0
1:52 pm 13:52 Mostly Cloudy 45 7.2 24 -4.4 44 44 NW 20 31 30.01 1016 10 16.0934 0 0
2:52 pm 14:52 Mostly Cloudy 46 7.8 24 -4.4 42 42 WNW 21 33 30 1016 10 16.0934 0 0
3:52 pm 15:52 Mostly Cloudy 48 8.9 22 -5.6 36 36 WNW 21 33 29.99 1016 10 16.0934 0 0
4:52 pm 16:52 Mostly Cloudy 47 8.3 20 -6.7 34 34 NNW 16 26 30 1016 10 16.0934 0 0
5:52 pm 17:52 Cloudy 46 7.8 20 -6.7 35 35 NNW 14 22 30.02 1017 10 16.0934 0 0
6:52 pm 18:52 Cloudy 46 7.8 21 -6.1 37 37 NW 14 22 30.04 1017 10 16.0934 0 0
7:52 pm 19:52 Cloudy 44 6.7 20 -6.7 38 38 NNW 16 26 30.06 1018 10 16.0934 0 0
8:52 pm 20:52 Cloudy 43 6.1 20 -6.7 40 40 NW 13 20 30.07 1018 10 16.0934 0 0
9:52 pm 21:52 Cloudy 43 6.1 20 -6.7 40 40 NW 15 24 30.1 1019 10 16.0934 0 0
10:52 pm 22:52 Cloudy 42 5.6 19 -7.2 40 40 NW 18 30 30.11 1020 10 16.0934 0 0
11:52 pm 23:52 Cloudy 41 5 19 -7.2 41 41 NW 20 31 30.12 1020 10 16.0934 0 0

Powered by AerisWeather